• In Uzbekistan
  • List of Countries
  • For 7 days
  • Water Temperature
  • Satellite Maps
  • Weather Map
  • Weather Widgets
  • user-avatar
    Login

    Hourly Weather Senaki

    Today, 24 January, Wednesday

    Time Temperature Precipitation Wind Pressure Humidity
    00:00 +9°C° 0.4 mm 1 mps 759 mmHg 88%
    01:00 +8°C° 1.2 mm 2 mps 760 mmHg 89%
    02:00 +8°C° 1.2 mm 3 mps 760 mmHg 91%
    03:00 +8°C° 1.2 mm 3 mps 760 mmHg 93%
    04:00 +8°C° 1.3 mm 3 mps 761 mmHg 93%
    05:00 +7°C° 1.3 mm 4 mps 761 mmHg 93%
    06:00 +6°C° 1.3 mm 4 mps 762 mmHg 94%
    07:00 +7°C° 0.8 mm 3 mps 762 mmHg 93%
    08:00 +7°C° 0.8 mm 3 mps 763 mmHg 93%
    09:00 +7°C° 0.8 mm 3 mps 763 mmHg 93%
    10:00 +7°C° 0.4 mm 3 mps 763 mmHg 92%
    11:00 +7°C° 0.4 mm 3 mps 763 mmHg 90%
    12:00 +7°C° 0.4 mm 3 mps 764 mmHg 89%
    13:00 +8°C° 0.2 mm 3 mps 764 mmHg 87%
    14:00 +8°C° 0.2 mm 3 mps 764 mmHg 86%
    15:00 +8°C° 0.2 mm 3 mps 764 mmHg 84%
    16:00 +7°C° 0.1 mm 2 mps 764 mmHg 85%
    17:00 +7°C° 0.1 mm 2 mps 765 mmHg 87%
    18:00 +6°C° 0.1 mm 2 mps 766 mmHg 88%
    19:00 +6°C° 0.1 mm 2 mps 766 mmHg 89%
    20:00 +6°C° 0.1 mm 2 mps 766 mmHg 89%
    21:00 +6°C° 0.1 mm 1 mps 766 mmHg 89%
    22:00 +6°C° 0.1 mm 1 mps 766 mmHg 90%
    23:00 +6°C° 0.1 mm 1 mps 766 mmHg 90%

    Tomorrow, 25 January, Thursday

    Time Temperature Precipitation Wind Pressure Humidity
    00:00 +6°C° 0.1 mm 1 mps 766 mmHg 90%
    01:00 +6°C° 0 mm 1 mps 766 mmHg 90%
    02:00 +5°C° 0 mm 1 mps 767 mmHg 90%
    03:00 +5°C° 0 mm 1 mps 767 mmHg 90%
    04:00 +5°C° 0 mm 1 mps 767 mmHg 89%
    05:00 +5°C° 0 mm 1 mps 766 mmHg 88%
    06:00 +5°C° 0 mm 1 mps 766 mmHg 88%
    07:00 +4°C° 0 mm 0 mps 766 mmHg 85%
    08:00 +5°C° 0 mm 0 mps 766 mmHg 82%
    09:00 +5°C° 0 mm 0 mps 766 mmHg 79%
    10:00 +7°C° 0 mm 1 mps 766 mmHg 76%
    11:00 +8°C° 0 mm 1 mps 765 mmHg 74%
    12:00 +9°C° 0 mm 1 mps 765 mmHg 71%
    13:00 +9°C° 0 mm 1 mps 765 mmHg 72%
    14:00 +9°C° 0 mm 1 mps 764 mmHg 72%
    15:00 +9°C° 0 mm 1 mps 764 mmHg 73%
    16:00 +9°C° 0.1 mm 1 mps 764 mmHg 77%
    17:00 +8°C° 0.1 mm 1 mps 764 mmHg 80%
    18:00 +7°C° 0.1 mm 1 mps 765 mmHg 84%
    19:00 +7°C° 0.1 mm 1 mps 765 mmHg 85%
    20:00 +7°C° 0.1 mm 1 mps 765 mmHg 85%
    21:00 +7°C° 0.1 mm 1 mps 765 mmHg 86%
    22:00 +7°C° 0.1 mm 1 mps 765 mmHg 86%
    23:00 +6°C° 0.1 mm 1 mps 765 mmHg 86%

    Day after tomorrow, 26 January, Friday

    Time Temperature Precipitation Wind Pressure Humidity
    00:00 +5°C° 0.1 mm 0 mps 765 mmHg 87%
    01:00 +6°C° 0 mm 1 mps 765 mmHg 86%
    02:00 +6°C° 0 mm 1 mps 765 mmHg 86%
    03:00 +6°C° 0 mm 1 mps 765 mmHg 86%
    04:00 +6°C° 0 mm 1 mps 764 mmHg 85%
    05:00 +6°C° 0 mm 1 mps 764 mmHg 85%
    06:00 +5°C° 0 mm 0 mps 764 mmHg 85%
    07:00 +5°C° 0 mm 0 mps 764 mmHg 83%
    08:00 +6°C° 0 mm 0 mps 764 mmHg 82%
    09:00 +6°C° 0 mm 0 mps 764 mmHg 80%
    10:00 +8°C° 0 mm 1 mps 763 mmHg 76%
    11:00 +9°C° 0 mm 1 mps 763 mmHg 73%
    12:00 +11°C° 0 mm 1 mps 763 mmHg 69%
    13:00 +11°C° 0 mm 1 mps 762 mmHg 70%
    14:00 +11°C° 0 mm 1 mps 762 mmHg 70%
    15:00 +10°C° 0 mm 2 mps 762 mmHg 70%
    16:00 +9°C° 0 mm 2 mps 762 mmHg 76%
    17:00 +9°C° 0 mm 1 mps 763 mmHg 81%
    18:00 +8°C° 0 mm 1 mps 763 mmHg 87%
    19:00 +7°C° 0 mm 1 mps 764 mmHg 87%
    20:00 +7°C° 0 mm 1 mps 764 mmHg 87%
    21:00 +7°C° 0 mm 1 mps 764 mmHg 87%
    22:00 +7°C° 0 mm 1 mps 764 mmHg 87%
    23:00 +7°C° 0 mm 1 mps 764 mmHg 86%

    27 January, Saturday

    Time Temperature Precipitation Wind Pressure Humidity
    00:00 +6°C° 0 mm 1 mps 765 mmHg 86%
    01:00 +6°C° 0 mm 1 mps 765 mmHg 85%
    02:00 +6°C° 0 mm 1 mps 765 mmHg 84%
    03:00 +6°C° 0 mm 1 mps 765 mmHg 84%
    04:00 +6°C° 0 mm 1 mps 765 mmHg 84%
    05:00 +6°C° 0 mm 1 mps 765 mmHg 84%
    06:00 +5°C° 0 mm 1 mps 765 mmHg 84%
    07:00 +6°C° 0 mm 1 mps 766 mmHg 82%
    08:00 +6°C° 0 mm 1 mps 766 mmHg 80%
    09:00 +7°C° 0 mm 1 mps 766 mmHg 79%
    10:00 +8°C° 0 mm 1 mps 766 mmHg 76%
    11:00 +9°C° 0 mm 1 mps 766 mmHg 73%
    12:00 +10°C° 0 mm 1 mps 766 mmHg 70%
    13:00 +10°C° 0 mm 1 mps 766 mmHg 71%
    14:00 +10°C° 0 mm 1 mps 767 mmHg 72%
    15:00 +9°C° 0 mm 2 mps 767 mmHg 72%
    16:00 +8°C° 0 mm 2 mps 767 mmHg 78%
    17:00 +8°C° 0 mm 1 mps 768 mmHg 84%
    18:00 +7°C° 0 mm 1 mps 768 mmHg 89%
    19:00 +7°C° 0 mm 1 mps 769 mmHg 91%
    20:00 +7°C° 0 mm 1 mps 769 mmHg 92%
    21:00 +7°C° 0 mm 1 mps 770 mmHg 93%
    22:00 +7°C° 0 mm 1 mps 770 mmHg 93%
    23:00 +6°C° 0 mm 1 mps 771 mmHg 93%

    28 January, Sunday

    Time Temperature Precipitation Wind Pressure Humidity
    00:00 +5°C° 0 mm 0 mps 771 mmHg 93%
    01:00 +6°C° 0 mm 1 mps 771 mmHg 93%
    02:00 +6°C° 0 mm 1 mps 771 mmHg 92%
    03:00 +5°C° 0 mm 1 mps 772 mmHg 92%
    04:00 +5°C° 0 mm 1 mps 772 mmHg 91%
    05:00 +5°C° 0 mm 1 mps 772 mmHg 90%
    06:00 +5°C° 0 mm 1 mps 772 mmHg 89%
    07:00 +6°C° 0 mm 1 mps 772 mmHg 86%
    08:00 +6°C° 0 mm 1 mps 772 mmHg 83%
    09:00 +7°C° 0 mm 1 mps 773 mmHg 80%
    10:00 +8°C° 0 mm 1 mps 772 mmHg 76%
    11:00 +9°C° 0 mm 1 mps 772 mmHg 72%
    12:00 +10°C° 0 mm 1 mps 772 mmHg 68%
    13:00 +10°C° 0 mm 1 mps 772 mmHg 68%
    14:00 +10°C° 0 mm 1 mps 771 mmHg 68%
    15:00 +10°C° 0 mm 1 mps 771 mmHg 68%
    16:00 +9°C° 0 mm 1 mps 772 mmHg 73%
    17:00 +8°C° 0 mm 1 mps 772 mmHg 78%
    18:00 +7°C° 0 mm 1 mps 772 mmHg 83%
    19:00 +7°C° 0 mm 1 mps 772 mmHg 85%
    20:00 +6°C° 0 mm 0 mps 773 mmHg 86%
    21:00 +5°C° 0 mm 0 mps 773 mmHg 88%
    22:00 +5°C° 0 mm 0 mps 773 mmHg 88%
    23:00 +5°C° 0 mm 0 mps 773 mmHg 88%

    29 January, Monday

    Time Temperature Precipitation Wind Pressure Humidity
    00:00 +5°C° 0 mm 0 mps 773 mmHg 89%
    01:00 +5°C° 0 mm 1 mps 773 mmHg 88%
    02:00 +5°C° 0 mm 1 mps 773 mmHg 88%
    03:00 +5°C° 0 mm 1 mps 773 mmHg 88%
    04:00 +5°C° 0.1 mm 1 mps 773 mmHg 86%
    05:00 +5°C° 0.1 mm 1 mps 773 mmHg 85%
    06:00 +5°C° 0.1 mm 1 mps 773 mmHg 84%
    07:00 +5°C° 0.1 mm 1 mps 773 mmHg 81%
    08:00 +6°C° 0.1 mm 1 mps 773 mmHg 79%
    09:00 +6°C° 0.1 mm 1 mps 773 mmHg 77%
    10:00 +7°C° 0.1 mm 1 mps 773 mmHg 74%
    11:00 +8°C° 0.1 mm 1 mps 772 mmHg 72%
    12:00 +9°C° 0.1 mm 1 mps 772 mmHg 69%
    13:00 +9°C° 0 mm 1 mps 772 mmHg 71%
    14:00 +7°C° 0 mm 2 mps 771 mmHg 73%
    15:00 +7°C° 0 mm 2 mps 771 mmHg 74%
    16:00 +7°C° 0.1 mm 2 mps 772 mmHg 79%
    17:00 +6°C° 0.1 mm 2 mps 772 mmHg 84%
    18:00 +6°C° 0.1 mm 1 mps 772 mmHg 89%
    19:00 +6°C° 0.1 mm 1 mps 773 mmHg 90%
    20:00 +6°C° 0.1 mm 1 mps 773 mmHg 90%
    21:00 +6°C° 0.1 mm 1 mps 773 mmHg 91%
    22:00 +6°C° 0.1 mm 1 mps 773 mmHg 90%
    23:00 +5°C° 0.1 mm 1 mps 773 mmHg 89%
    Show more